Back to catalog

QIANFAN-209

AliveCommunicationsPO
NORAD 69808·PAYLOAD·🇨🇳 China

Launched Jul 4, 2026 from Taiyuan Satellite Launch Center

Loading…

Next Passes (next 24 hours)

TLE

FreshSource: Space-Track

Epoch: Sep 14, 2026, 21:40 UTC

1 69808U 26153J   26257.90324967 -.01885654  00000-0 -13523+1 0  9993
2 69808  88.9973 352.0868 0006325 319.9611  40.1101 14.00872923 10267

Track QIANFAN-209 in real time with AllMySat

Download on the App Store